Location: Hernandez
(10.3704°N, 67.2181°W)
Time: 05:02:58
(UTC+00:00)

H-2A R/B - Pass Details

Date: 13 April 2024
Orbit: 266 x 31756 km, 28.0° (Epoch: 25 May)

Event Time Altitude Azimuth Distance (km) Brightness Sun altitude
Rises 14:20:01 0° 266° (W) 11,712 7.7 58.2°
Reaches altitude 10° 14:29:01 10° 259° (W) 13,035 8.1 60.4°
Maximum altitude 22:47:28 67° 159° (SSE) 2,516 4.5 -2.7°
Drops below altitude 10° 22:54:04 10° 76° (ENE) 2,837 4.4 -4.3°
Enters shadow 22:55:15 - 73° (ENE) 3,260 4.7 -4.6°
